Luz, Portugal

7:57 AM WET on January 16, 2018 (GMT +0000)
Luz

Weather History for 08554 - February, 2014

Change the Weather History Date:

Wednesday, February 5, 2014

  Actual Average Record
Temperature  
Mean Temperature 60 °F -  
Max Temperature 62 °F 61 °F - ()
Min Temperature 57 °F 47 °F - ()
Degree Days  
Heating Degree Days 6    
Growing Degree Days 10 (Base 50)    
Moisture  
Dew Point 57 °F    
Average Humidity 90    
Maximum Humidity 100    
Minimum Humidity 74    
Precipitation  
Precipitation 0.04 in 0.09 in - ()
Sea Level Pressure  
Sea Level Pressure 30.00 in    
Wind  
Wind Speed 16 mph ()    
Max Wind Speed 29 mph    
Max Gust Speed 36 mph    
Visibility 5.3 miles    
Events Rain    
T = Trace of Precipitation, MM = Missing Value Source: Averaged Metar Reports

Daily Weather History Graph

Daily Weather History Graph

Search for Another Location

Airport or City:

Trip Planner

Search our weather history database for the weather conditions in past years. The results will help you decide how hot, cold, wet, or windy it might be!

Date:

Astronomy

Feb. 05, 2014 Rise Set
Actual Time 7:31 AM WET 6:01 PM WET
Civil Twilight 7:03 AM WET 6:28 PM WET
Nautical Twilight 6:33 AM WET 6:59 PM WET
Astronomical Twilight 6:02 AM WET 7:29 PM WET
Moon 10:47 AM WET (2/5) No Moon Set
Length of Visible Light 11h 24m
Length of Day
10h 30m
Waxing Crescent, 37% of the Moon is Illuminated
Feb 5
Waxing Crescent
Feb 6
First Quarter
Feb 14
Full
Feb 22
Last Quarter
Mar 1
New

Hourly Weather History & Observations

Time (WET) Temp. Dew Point Humidity Pressure Visibility Wind Dir Wind Speed Gust Speed Precip Events Conditions
12:00 AM 60 °F 54 °F 74% 29.94 in 6 mi SW 24.6 mph - -   Partly Cloudy
12:00 AM 60.8 °F 55.4 °F 82% 29.92 in 6.2 mi SW 21.9 mph - N/A   Mostly Cloudy
12:30 AM 60.8 °F 55.4 °F 82% 29.92 in 5.0 mi SW 23.0 mph - N/A Rain Light Rain
1:00 AM 60 °F 54 °F 74% 29.92 in - SW 26.8 mph - -  
1:00 AM 60.8 °F 55.4 °F 82% 29.92 in 5.6 mi SW 24.2 mph 35.7 mph N/A Rain Light Rain
1:30 AM 59.0 °F 55.4 °F 88% 29.89 in 6.2 mi WSW 26.5 mph - N/A   Mostly Cloudy
2:00 AM 60 °F 54 °F 76% 29.93 in - WSW 24.6 mph - -  
2:00 AM 59.0 °F 57.2 °F 94% 29.92 in 6.2 mi WSW 25.3 mph - N/A   Mostly Cloudy
2:30 AM 60.8 °F 57.2 °F 88% 29.89 in 6.2 mi WSW 24.2 mph - N/A   Mostly Cloudy
3:00 AM 60 °F 55 °F 78% 29.92 in 6 mi WSW 29.1 mph - -   Overcast
3:00 AM 60.8 °F 57.2 °F 88% 29.89 in 6.2 mi WSW 25.3 mph - N/A   Overcast
3:30 AM 60.8 °F 57.2 °F 88% 29.89 in 3.7 mi WSW 28.8 mph - N/A Rain Light Rain Showers
4:00 AM 59 °F 56 °F 85% 29.93 in - WSW 24.6 mph - -  
4:00 AM 59.0 °F 57.2 °F 94% 29.92 in 5.0 mi WSW 24.2 mph - N/A Rain Light Rain
4:30 AM 59.0 °F 57.2 °F 94% 29.92 in 5.0 mi WSW 25.3 mph - N/A   Mostly Cloudy
5:00 AM 59 °F 56 °F 87% 29.95 in - WSW 24.6 mph - -  
5:00 AM 59.0 °F 59.0 °F 100% 29.92 in 3.7 mi WSW 25.3 mph - N/A Rain Light Rain
5:30 AM 57.2 °F 57.2 °F 100% 29.92 in 6.2 mi West 18.4 mph - N/A   Mostly Cloudy
6:00 AM 58 °F 55 °F 85% 29.96 in 6 mi West 17.9 mph - -   Overcast
6:00 AM 57.2 °F 57.2 °F 100% 29.92 in 6.2 mi West 17.3 mph - N/A   Mostly Cloudy
6:30 AM 57.2 °F 57.2 °F 100% 29.95 in 5.6 mi West 16.1 mph - N/A   Mostly Cloudy
7:00 AM 57 °F 54 °F 85% 29.98 in - West 11.2 mph - -  
7:00 AM 57.2 °F 55.4 °F 94% 29.95 in 5.0 mi West 13.8 mph - N/A   Mostly Cloudy
7:30 AM 57.2 °F 55.4 °F 94% 29.98 in 4.3 mi West 11.5 mph - N/A   Scattered Clouds
8:00 AM 58 °F 54 °F 84% 30.00 in - WSW 11.2 mph - -  
8:00 AM 57.2 °F 57.2 °F 100% 29.98 in 4.3 mi West 10.4 mph - N/A   Scattered Clouds
8:30 AM 59.0 °F 57.2 °F 94% 29.98 in 4.3 mi WSW 12.7 mph - N/A   Mostly Cloudy
9:00 AM 58 °F 55 °F 86% 30.03 in 4 mi WSW 11.2 mph - -   Mist
9:00 AM 59.0 °F 57.2 °F 94% 30.01 in 4.3 mi WSW 11.5 mph - N/A   Mostly Cloudy
9:30 AM 59.0 °F 57.2 °F 94% 30.01 in 4.3 mi West 11.5 mph - N/A   Mostly Cloudy
10:00 AM 60 °F 56 °F 81% 30.05 in - WSW 11.2 mph - -  
10:00 AM 59.0 °F 57.2 °F 94% 30.04 in 5.0 mi WSW 10.4 mph - N/A   Mostly Cloudy
10:30 AM 60.8 °F 57.2 °F 88% 30.04 in 5.0 mi WSW 10.4 mph - N/A   Scattered Clouds
11:00 AM 61 °F 56 °F 80% 30.07 in - WSW 8.9 mph - -  
11:00 AM 60.8 °F 57.2 °F 88% 30.04 in 5.0 mi WSW 9.2 mph - N/A   Scattered Clouds
11:30 AM 60.8 °F 59.0 °F 94% 30.04 in 5.0 mi WSW 9.2 mph - N/A   Scattered Clouds
12:00 PM 62 °F 57 °F 80% 30.07 in 6 mi SW 11.2 mph - -   Mist
12:00 PM 60.8 °F 59.0 °F 94% 30.04 in 5.6 mi WSW 10.4 mph - N/A   Mostly Cloudy
12:30 PM 60.8 °F 59.0 °F 94% 30.04 in 5.0 mi WSW 10.4 mph - N/A   Scattered Clouds
1:00 PM 62 °F 56 °F 77% 30.06 in - SW 13.4 mph - -  
1:00 PM 60.8 °F 59.0 °F 94% 30.04 in 5.6 mi WSW 11.5 mph - N/A   Scattered Clouds
1:30 PM 60.8 °F 59.0 °F 94% 30.04 in 5.6 mi WSW 12.7 mph - N/A   Scattered Clouds
2:00 PM 62 °F 57 °F 79% 30.05 in - WSW 11.2 mph - -  
2:00 PM 60.8 °F 59.0 °F 94% 30.04 in 5.6 mi WSW 11.5 mph - N/A   Scattered Clouds
2:30 PM 60.8 °F 59.0 °F 94% 30.01 in 5.6 mi WSW 13.8 mph - N/A   Mostly Cloudy
3:00 PM 61 °F 57 °F 82% 30.04 in 6 mi WSW 8.9 mph - -   Mist
3:00 PM 60.8 °F 59.0 °F 94% 30.01 in 5.6 mi WSW 11.5 mph - N/A   Mostly Cloudy
3:30 PM 60.8 °F 59.0 °F 94% 30.01 in 5.6 mi WSW 10.4 mph - N/A   Mostly Cloudy
4:00 PM 61 °F 56 °F 80% 30.04 in - WSW 8.9 mph - -  
4:00 PM 60.8 °F 59.0 °F 94% 30.01 in 6.2 mi WSW 10.4 mph - N/A   Mostly Cloudy
4:30 PM 60.8 °F 59.0 °F 94% 30.04 in 6.2 mi WSW 10.4 mph - N/A   Mostly Cloudy
5:00 PM 61 °F 56 °F 80% 30.05 in - WSW 8.9 mph - -  
5:00 PM 60.8 °F 59.0 °F 94% 30.04 in 6.2 mi WSW 9.2 mph - N/A   Mostly Cloudy
5:30 PM 59.0 °F 57.2 °F 94% 30.04 in 6.2 mi WSW 6.9 mph - N/A   Partly Cloudy
6:00 PM 59.0 °F 57.2 °F 94% 30.04 in 5.0 mi SW 5.8 mph - N/A   Partly Cloudy
6:30 PM 59.0 °F 57.2 °F 94% 30.04 in 4.3 mi SW 4.6 mph - N/A   Mostly Cloudy
7:00 PM 59.0 °F 57.2 °F 94% 30.04 in 5.6 mi SW 4.6 mph - N/A   Mostly Cloudy
7:30 PM 59.0 °F 57.2 °F 94% 30.04 in 6.2 mi SW 5.8 mph - N/A   Mostly Cloudy
8:00 PM 60 °F 56 °F 84% 30.07 in - SW 6.7 mph - -  
8:00 PM 59.0 °F 59.0 °F 100% 30.04 in 6.2 mi SSW 5.8 mph - N/A   Mostly Cloudy
8:30 PM 59.0 °F 59.0 °F 100% 30.04 in 5.6 mi SSW 5.8 mph - N/A   Mostly Cloudy
9:00 PM 60 °F 57 °F 85% 30.07 in 6 mi SW 4.5 mph - -   Mist
9:00 PM 59.0 °F 59.0 °F 100% 30.04 in 5.6 mi SSW 5.8 mph - N/A   Mostly Cloudy
9:30 PM 59.0 °F 59.0 °F 100% 30.04 in 2.5 mi SW 10.4 mph - N/A Rain Light Rain
10:00 PM 60 °F 57 °F 87% 30.07 in - SSW 6.7 mph - -  
10:00 PM 60.8 °F 59.0 °F 94% 30.04 in 5.0 mi SW 8.1 mph - N/A Rain Light Rain
10:30 PM 59.0 °F 59.0 °F 100% 30.04 in 5.6 mi SW 5.8 mph - N/A   Mostly Cloudy
11:00 PM 60 °F 58 °F 89% 30.07 in - SW 11.2 mph - -  
11:00 PM 60.8 °F 59.0 °F 94% 30.04 in 3.7 mi SW 10.4 mph - N/A Rain Light Rain
11:30 PM 59.0 °F 59.0 °F 100% 30.04 in 5.0 mi SSW 8.1 mph - N/A   Mostly Cloudy